FW7128 Weather Reports


time (UTC)temp
C
wind
direction
speed
KPH
gust
KPH
rain 1hr
cm
rain 24hr
cm
rain mn
cm
humidity
%
barometer
mb
20260510022244 26 34 6.4 37.0 0.00 0.00 0.00 61 1006.3
20260510021743 26 112 24.1 37.0 0.00 0.00 0.00 60 1006.3
20260510021241 26 135 17.7 35.4 0.00 0.00 0.00 60 1006.3
20260510020736 26 101 17.7 29.0 0.00 0.00 0.00 60 1006.1
20260510020226 26 100 20.9 30.6 0.00 0.00 0.00 59 1006.1
20260510015722 26 114 16.1 35.4 0.00 0.00 0.00 59 1006.0
20260510015218 26 120 14.5 24.1 0.00 0.00 0.00 59 1006.0
20260510014714 26 101 25.7 35.4 0.00 0.00 0.00 59 1006.0
20260510014211 26 112 12.9 29.0 0.00 0.00 0.00 58 1006.1
20260510013711 27 119 17.7 29.0 0.00 0.00 0.00 58 1006.0
20260510013207 27 105 11.3 30.6 0.00 0.00 0.00 58 1006.1
20260510012702 27 83 9.7 25.7 0.00 0.00 0.00 58 1005.8
20260510012157 27 104 11.3 20.9 0.00 0.00 0.00 58 1005.9
20260510011652 27 99 14.5 20.9 0.00 0.00 0.00 58 1006.0
20260510011149 27 115 14.5 14.5 0.00 0.00 0.00 57 1005.9
20260510010644 27 104 11.3 27.4 0.00 0.00 0.00 57 1005.7
20260510010142 27 96 9.7 27.4 0.00 0.00 0.00 56 1005.8
20260510005638 27 66 29.0 37.0 0.00 0.00 0.00 56 1005.8
20260510005135 28 52 9.7 35.4 0.00 0.00 0.00 56 1005.6
20260510004633 28 118 25.7 45.1 0.00 0.00 0.00 56 1005.3
20260510004131 28 138 14.5 22.5 0.00 0.00 0.00 56 1005.7
20260510003628 28 123 12.9 33.8 0.00 0.00 0.00 56 1005.8
20260510003124 28 75 14.5 27.4 0.00 0.00 0.00 55 1005.8
20260510002624 28 142 12.9 37.0 0.00 0.00 0.00 55 1005.7
20260510002121 28 114 20.9 45.1 0.00 0.00 0.00 54 1005.6
20260510001618 28 85 25.7 35.4 0.00 0.00 0.00 54 1005.9
20260510001117 28 117 12.9 19.3 0.00 0.00 0.00 53 1006.3
20260510000616 28 108 19.3 27.4 0.00 0.00 0.00 52 1006.1
20260510000114 28 100 17.7 33.8 0.00 0.00 0.00 52 1006.4
20260509235610 29 103 29.0 35.4 0.00 0.00 0.00 51 1006.2
20260509235107 29 146 8.0 17.7 0.00 0.00 0.00 52 1006.2
20260509234603 29 74 8.0 27.4 0.00 0.00 0.00 52 1006.3
20260509234101 30 80 30.6 35.4 0.00 0.00 0.00 50 1006.3
20260509233558 30 64 11.3 37.0 0.00 0.00 0.00 50 1006.2
20260509233055 30 105 9.7 22.5 0.00 0.00 0.00 50 1006.2
20260509232552 30 68 9.7 32.2 0.00 0.00 0.00 50 1006.2
20260509232049 30 106 20.9 29.0 0.00 0.00 0.00 50 1006.4
20260509231545 29 121 16.1 32.2 0.00 0.00 0.00 50 1006.4
20260509231043 30 111 24.1 46.7 0.00 0.00 0.00 49 1006.2
20260509230539 29 112 30.6 35.4 0.00 0.00 0.00 50 1006.2
20260509230037 30 73 27.4 38.6 0.00 0.00 0.00 49 1006.5
20260509225532 29 71 8.0 22.5 0.00 0.00 0.00 50 1006.5
20260509225028 30 70 33.8 38.6 0.00 0.00 0.00 49 1006.4
20260509224524 29 93 3.2 30.6 0.00 0.00 0.00 49 1006.7
20260509224021 29 114 19.3 35.4 0.00 0.00 0.00 50 1006.8
20260509223517 30 111 9.7 27.4 0.00 0.00 0.00 50 1006.8
20260509223016 29 107 14.5 25.7 0.00 0.00 0.00 50 1006.8
20260509222511 29 87 12.9 27.4 0.00 0.00 0.00 50 1007.0
20260509222007 29 127 4.8 25.7 0.00 0.00 0.00 50 1007.1
20260509221503 28 147 6.4 33.8 0.00 0.00 0.00 50 1007.0
20260509220959 29 116 16.1 30.6 0.00 0.00 0.00 49 1007.2
20260509220455 29 80 32.2 41.8 0.00 0.00 0.00 48 1007.3
20260509215951 29 86 9.7 20.9 0.00 0.00 0.00 49 1007.2
20260509215447 29 151 16.1 33.8 0.00 0.00 0.00 49 1007.6
20260509214945 29 113 14.5 22.5 0.00 0.00 0.00 49 1007.6
20260509214442 29 103 11.3 25.7 0.00 0.00 0.00 49 1007.5
20260509213938 29 69 14.5 24.1 0.00 0.00 0.00 48 1007.6
20260509213434 29 158 8.0 22.5 0.00 0.00 0.00 49 1007.8
20260509212931 28 135 19.3 27.4 0.00 0.00 0.00 49 1008.0
20260509212429 28 91 25.7 33.8 0.00 0.00 0.00 49 1007.9
20260509211925 28 88 19.3 22.5 0.00 0.00 0.00 48 1008.2
20260509211420 28 88 8.0 17.7 0.00 0.00 0.00 48 1007.9
20260509210917 29 105 20.9 22.5 0.00 0.00 0.00 48 1008.2
20260509210414 28 91 11.3 25.7 0.00 0.00 0.00 48 1008.1
20260509205909 29 160 6.4 17.7 0.00 0.00 0.00 48 1008.1
20260509205404 28 135 11.3 17.7 0.00 0.00 0.00 48 1008.0
20260509204900 29 125 9.7 19.3 0.00 0.00 0.00 46 1008.3
20260509204357 29 175 20.9 22.5 0.00 0.00 0.00 48 1008.5
20260509203853 28 192 4.8 11.3 0.00 0.00 0.00 49 1008.4
20260509203349 28 63 11.3 19.3 0.00 0.00 0.00 50 1008.4
20260509202847 28 60 8.0 16.1 0.00 0.00 0.00 50 1008.6
20260509202342 28 115 24.1 37.0 0.00 0.00 0.00 51 1008.6
20260509201838 28 104 30.6 30.6 0.00 0.00 0.00 52 1008.6
20260509201334 28 230 0.0 29.0 0.00 0.00 0.00 52 1008.8
20260509200830 28 111 11.3 20.9 0.00 0.00 0.00 51 1008.9
20260509200326 28 78 12.9 29.0 0.00 0.00 0.00 52 1008.9
20260509195822 28 69 8.0 16.1 0.00 0.00 0.00 49 1008.9
20260509195317 27 99 8.0 12.9 0.00 0.00 0.00 51 1009.2
20260509194817 28 92 11.3 20.9 0.00 0.00 0.00 50 1009.3
20260509194313 27 224 0.0 16.1 0.00 0.00 0.00 49 1009.4
20260509193810 28 98 4.8 29.0 0.00 0.00 0.00 47 1009.4
20260509193309 28 84 14.5 17.7 0.00 0.00 0.00 49 1009.4
20260509192806 27 95 9.7 20.9 0.00 0.00 0.00 48 1009.5
20260509192305 27 77 8.0 22.5 0.00 0.00 0.00 51 1009.5
20260509191757 28 66 11.3 29.0 0.00 0.00 0.00 49 1009.5
20260509191254 27 294 0.0 16.1 0.00 0.00 0.00 50 1009.4
20260509190749 27 216 0.0 19.3 0.00 0.00 0.00 51 1009.4
20260509190247 28 74 14.5 17.7 0.00 0.00 0.00 51 1009.5
20260509185744 27 342 0.0 9.7 0.00 0.00 0.00 52 1009.7
20260509185240 27 91 6.4 16.1 0.00 0.00 0.00 46 1009.5
20260509184738 27 104 24.1 25.7 0.00 0.00 0.00 46 1009.6
20260509184235 27 72 11.3 14.5 0.00 0.00 0.00 47 1009.6
20260509183731 28 125 9.7 19.3 0.00 0.00 0.00 47 1009.5
20260509183226 27 176 0.0 4.8 0.00 0.00 0.00 51 1009.6
20260509182722 27 44 0.0 12.9 0.00 0.00 0.00 49 1009.8
20260509182220 28 97 6.4 16.1 0.00 0.00 0.00 48 1009.6
20260509181717 28 237 0.0 8.0 0.00 0.00 0.00 50 1009.8
20260509181215 27 132 0.0 6.4 0.00 0.00 0.00 51 1009.9
20260509180712 27 135 4.8 19.3 0.00 0.00 0.00 49 1010.0
20260509180208 26 28 0.0 12.9 0.00 0.00 0.00 49 1010.5
20260509175704 27 72 14.5 20.9 0.00 0.00 0.00 51 1010.4
20260509175201 27 140 6.4 16.1 0.00 0.00 0.00 48 1010.5
20260509174656 26 94 0.0 11.3 0.00 0.00 0.00 50 1010.4
20260509174151 27 2 4.8 9.7 0.00 0.00 0.00 50 1010.8
20260509173648 27 353 0.0 16.1 0.00 0.00 0.00 52 1010.8
20260509173143 26 258 8.0 8.0 0.00 0.00 0.00 49 1010.8
20260509172640 26 93 3.2 11.3 0.00 0.00 0.00 50 1010.9
20260509172136 27 258 0.0 14.5 0.00 0.00 0.00 48 1010.9
20260509171632 27 202 4.8 4.8 0.00 0.00 0.00 46 1010.9
20260509171128 26 101 0.0 9.7 0.00 0.00 0.00 49 1010.8
20260509170625 28 3 6.4 20.9 0.00 0.00 0.00 49 1011.2
20260509170121 27 245 0.0 3.2 0.00 0.00 0.00 49 1011.2
20260509165619 27 76 8.0 14.5 0.00 0.00 0.00 47 1011.0
20260509165115 26 163 3.2 4.8 0.00 0.00 0.00 48 1011.2
20260509164611 26 51 0.0 4.8 0.00 0.00 0.00 48 1011.5
20260509164107 27 116 9.7 11.3 0.00 0.00 0.00 48 1011.5
20260509163606 27 261 0.0 4.8 0.00 0.00 0.00 50 1011.4
20260509163101 27 247 0.0 4.8 0.00 0.00 0.00 48 1011.6
20260509162558 26 230 0.0 4.8 0.00 0.00 0.00 51 1011.4
20260509162054 25 216 0.0 8.0 0.00 0.00 0.00 51 1011.5
20260509161550 26 133 4.8 4.8 0.00 0.00 0.00 53 1011.4
20260509161045 25 124 3.2 4.8 0.00 0.00 0.00 56 1011.4
20260509160541 25 136 0.0 8.0 0.00 0.00 0.00 56 1011.3
20260509160037 23 32 0.0 6.4 0.00 0.00 0.00 58 1011.5
20260509155533 25 173 4.8 11.3 0.00 0.00 0.00 59 1011.4
20260509155029 24 124 3.2 12.9 0.00 0.00 0.00 60 1011.8
20260509154526 23 158 0.0 6.4 0.00 0.00 0.00 63 1011.7
20260509154023 23 222 0.0 4.8 0.00 0.00 0.00 61 1011.8
20260509153520 23 36 0.0 11.3 0.00 0.00 0.00 64 1011.8
20260509153017 23 203 8.0 8.0 0.00 0.00 0.00 62 1011.9
20260509152513 23 176 3.2 6.4 0.00 0.00 0.00 65 1011.7
20260509152009 23 165 4.8 8.0 0.00 0.00 0.00 64 1011.6
20260509151506 23 229 8.0 8.0 0.00 0.00 0.00 63 1011.5
20260509151005 22 204 3.2 4.8 0.00 0.00 0.00 65 1011.6
20260509150501 22 68 8.0 8.0 0.00 0.00 0.00 66 1011.7
20260509145959 22 126 3.2 6.4 0.00 0.00 0.00 67 1011.8
20260509145455 22 108 11.3 11.3 0.00 0.00 0.00 68 1011.9
20260509144950 22 62 0.0 8.0 0.00 0.00 0.00 69 1011.7
20260509144447 21 148 0.0 8.0 0.00 0.00 0.00 68 1011.9
20260509143944 22 137 6.4 6.4 0.00 0.00 0.00 67 1011.8
20260509143441 20 129 0.0 0.0 0.00 0.00 0.00 68 1011.6
20260509142938 21 243 0.0 4.8 0.00 0.00 0.00 73 1011.8
20260509142434 20 55 4.8 6.4 0.00 0.00 0.00 73 1011.9
20260509141930 20 92 4.8 8.0 0.00 0.00 0.00 74 1012.0
20260509141427 20 132 8.0 8.0 0.00 0.00 0.00 73 1011.9
20260509140924 20 68 4.8 11.3 0.00 0.00 0.00 74 1012.0
20260509140420 19 137 4.8 8.0 0.00 0.00 0.00 79 1011.8
20260509135918 19 164 0.0 8.0 0.00 0.00 0.00 80 1012.0
20260509135416 18 151 0.0 11.3 0.00 0.00 0.00 80 1012.0
20260509134913 19 121 8.0 9.7 0.00 0.00 0.00 79 1012.1
20260509134410 18 117 0.0 8.0 0.00 0.00 0.00 82 1011.9
20260509133907 18 134 0.0 9.7 0.00 0.00 0.00 83 1011.7
20260509133404 19 96 8.0 8.0 0.00 0.00 0.00 80 1011.9
20260509132902 18 135 0.0 8.0 0.00 0.00 0.00 84 1011.8
20260509132400 17 114 4.8 8.0 0.00 0.00 0.00 88 1012.0
20260509131857 17 195 4.8 8.0 0.00 0.00 0.00 88 1011.9
20260509131354 17 128 4.8 6.4 0.00 0.00 0.00 89 1011.8
20260509130850 16 168 0.0 9.7 0.00 0.00 0.00 91 1011.8
20260509130346 16 101 4.8 8.0 0.00 0.00 0.00 94 1011.9
20260509125843 16 168 6.4 9.7 0.00 0.00 0.00 95 1011.7
20260509125339 16 127 0.0 11.3 0.00 0.00 0.00 96 1011.8
20260509124836 16 181 3.2 11.3 0.00 0.00 0.00 97 1011.9
20260509124333 15 107 9.7 9.7 0.00 0.00 0.00 99 1011.8
20260509123831 15 160 9.7 9.7 0.00 0.00 0.00 99 1011.6
20260509123328 15 140 4.8 9.7 0.00 0.00 0.00 99 1011.6
20260509122823 15 123 0.0 6.4 0.00 0.00 0.00 99 1011.5
20260509122320 15 209 3.2 4.8 0.00 0.00 0.00 99 1011.5
20260509121817 15 180 0.0 6.4 0.00 0.00 0.00 99 1011.4
20260509121314 15 138 0.0 8.0 0.00 0.00 0.00 99 1011.7
20260509120813 15 147 0.0 0.0 0.00 0.00 0.00 99 1011.4
20260509120310 15 180 0.0 9.7 0.00 0.00 0.00 99 1011.5
20260509115808 15 201 6.4 11.3 0.00 0.00 0.00 99 1011.6
20260509115307 15 166 3.2 6.4 0.00 0.00 0.00 99 1011.1
20260509114803 15 180 0.0 3.2 0.00 0.00 0.00 99 1011.1
20260509114301 15 195 9.7 14.5 0.00 0.00 0.00 99 1011.3
20260509113800 15 191 3.2 12.9 0.00 0.00 0.00 99 1011.0
20260509113256 15 150 0.0 14.5 0.00 0.00 0.00 99 1011.3
20260509112753 15 165 6.4 16.1 0.00 0.00 0.00 99 1011.0
20260509112250 15 179 4.8 16.1 0.00 0.00 0.00 99 1010.9
20260509111747 15 190 4.8 8.0 0.00 0.00 0.00 99 1011.0
20260509111244 15 148 0.0 4.8 0.00 0.00 0.00 99 1010.1
20260509110741 15 150 0.0 8.0 0.00 0.00 0.00 99 1010.0
20260509110238 15 89 0.0 3.2 0.00 0.00 0.00 99 1010.1
20260509105736 15 113 0.0 8.0 0.00 0.00 0.00 99 1010.1
20260509105233 15 102 0.0 3.2 0.00 0.00 0.00 99 1010.1
20260509104730 15 114 6.4 11.3 0.00 0.00 0.00 99 1010.2
20260509104227 15 93 3.2 4.8 0.00 0.00 0.00 99 1009.9
20260509103725 15 131 0.0 9.7 0.00 0.00 0.00 99 1010.1
20260509103222 15 143 0.0 4.8 0.00 0.00 0.00 99 1010.0
20260509102720 15 151 0.0 3.2 0.00 0.00 0.00 99 1010.1
20260509102217 15 118 0.0 4.8 0.00 0.00 0.00 99 1010.0
20260509101713 15 74 6.4 9.7 0.00 0.00 0.00 99 1010.0
20260509101210 15 78 0.0 8.0 0.00 0.00 0.00 99 1009.9
20260509100708 15 110 6.4 8.0 0.00 0.00 0.00 99 1009.9
20260509100204 15 63 6.4 8.0 0.00 0.00 0.00 99 1009.7
20260509095701 15 131 0.0 0.0 0.00 0.00 0.00 99 1009.4
20260509095158 15 132 0.0 0.0 0.00 0.00 0.00 99 1009.6
20260509094655 15 130 0.0 3.2 0.00 0.00 0.00 99 1009.2
20260509094152 15 217 0.0 3.2 0.00 0.00 0.00 98 1009.4
20260509093651 15 130 3.2 3.2 0.00 0.00 0.00 98 1009.1
20260509093147 15 142 0.0 0.0 0.00 0.00 0.00 98 1009.1
20260509092645 15 141 0.0 3.2 0.00 0.00 0.00 98 1008.9
20260509092143 15 162 0.0 0.0 0.00 0.00 0.00 98 1008.8
20260509091641 15 149 0.0 0.0 0.00 0.00 0.00 98 1008.8
20260509091137 15 144 0.0 4.8 0.00 0.00 0.00 97 1008.9
20260509090635 15 113 0.0 3.2 0.00 0.00 0.00 97 1008.8
20260509090132 15 131 0.0 4.8 0.00 0.00 0.00 97 1008.7
20260509085629 15 142 0.0 0.0 0.00 0.00 0.00 97 1008.8
20260509085125 15 139 0.0 0.0 0.00 0.00 0.00 96 1009.0
20260509084623 15 208 3.2 3.2 0.00 0.00 0.00 96 1009.0
20260509084119 15 144 0.0 3.2 0.00 0.00 0.00 95 1008.9
20260509083617 16 186 0.0 3.2 0.00 0.00 0.00 94 1008.8
20260509083113 16 186 0.0 4.8 0.00 0.00 0.00 94 1009.0
20260509082611 16 240 0.0 3.2 0.00 0.00 0.00 93 1008.9
20260509082107 16 306 0.0 3.2 0.00 0.00 0.00 92 1009.1
20260509081605 16 199 0.0 3.2 0.00 0.00 0.00 91 1009.2
20260509081101 16 191 0.0 3.2 0.00 0.00 0.00 91 1009.0
20260509080600 16 193 0.0 4.8 0.00 0.00 0.00 91 1009.2
20260509080057 16 205 0.0 3.2 0.00 0.00 0.00 90 1009.3
20260509075555 16 147 0.0 8.0 0.00 0.00 0.00 89 1009.5
20260509075053 16 217 0.0 8.0 0.00 0.00 0.00 88 1009.2
20260509074549 16 32 0.0 8.0 0.00 0.00 0.00 88 1009.4
20260509074046 16 180 4.8 9.7 0.00 0.00 0.00 88 1009.5
20260509073542 16 210 4.8 11.3 0.00 0.00 0.00 89 1009.2
20260509073039 16 211 0.0 8.0 0.00 0.00 0.00 89 1009.5
20260509072535 16 180 3.2 9.7 0.00 0.00 0.00 89 1009.7
20260509072032 16 232 8.0 17.7 0.00 0.00 0.00 89 1009.6
20260509071529 16 229 6.4 11.3 0.00 0.00 0.00 90 1009.8
20260509071026 16 202 0.0 17.7 0.00 0.00 0.00 90 1009.8
20260509070524 16 207 0.0 11.3 0.00 0.00 0.00 92 1009.6
20260509070020 16 222 4.8 6.4 0.00 0.00 0.00 93 1009.7
20260509065515 16 256 0.0 4.8 0.00 0.00 0.00 93 1009.8
20260509065012 16 196 4.8 6.4 0.00 0.00 0.00 94 1009.8
20260509064509 16 269 0.0 8.0 0.00 0.00 0.00 95 1009.9
20260509064007 16 260 0.0 6.4 0.00 0.00 0.00 95 1009.9
20260509063502 16 298 0.0 6.4 0.00 0.00 0.00 95 1009.9
20260509063000 16 230 0.0 0.0 0.00 0.00 0.00 95 1010.2
20260509062457 16 129 0.0 8.0 0.00 0.00 0.00 94 1010.4
20260509061955 16 245 3.2 8.0 0.00 0.00 0.00 95 1010.2
20260509061451 16 247 6.4 11.3 0.00 0.00 0.00 95 1010.1
20260509060949 16 158 0.0 8.0 0.00 0.00 0.00 95 1010.0
20260509060446 16 233 0.0 4.8 0.00 0.00 0.00 94 1009.9
20260509055942 16 223 0.0 14.5 0.00 0.00 0.00 94 1010.2
20260509055437 16 262 3.2 14.5 0.00 0.00 0.00 93 1010.2
20260509054934 16 207 16.1 16.1 0.00 0.00 0.00 94 1010.1
20260509054430 16 187 3.2 9.7 0.00 0.00 0.00 94 1010.5
20260509053929 16 275 0.0 14.5 0.00 0.00 0.00 94 1010.2
20260509053426 16 202 8.0 9.7 0.00 0.00 0.00 94 1009.9
20260509052923 16 228 11.3 12.9 0.00 0.00 0.00 94 1009.6
20260509052421 16 59 4.8 19.3 0.00 0.00 0.00 94 1009.9
20260509051919 16 134 0.0 11.3 0.00 0.00 0.00 94 1009.8
20260509051416 16 112 6.4 12.9 0.00 0.00 0.00 94 1009.9
20260509050913 16 168 0.0 14.5 0.00 0.00 0.00 94 1011.0
20260509050410 16 230 4.8 8.0 0.00 0.00 0.00 94 1011.0
20260509045907 16 207 0.0 8.0 0.00 0.86 0.86 94 1011.1
20260509045403 16 191 16.1 17.7 0.00 0.86 0.86 94 1011.0
20260509044901 16 173 9.7 14.5 0.00 0.86 0.86 94 1011.1
20260509044358 16 106 6.4 14.5 0.00 0.86 0.86 94 1010.9
20260509043855 16 185 0.0 30.6 0.00 0.86 0.86 92 1011.1
20260509043351 17 105 22.5 30.6 0.00 0.86 0.86 91 1010.9
20260509042847 17 75 22.5 32.2 0.00 0.86 0.86 93 1010.9
20260509042343 17 158 6.4 24.1 0.00 0.86 0.86 94 1010.8
20260509041840 17 122 14.5 33.8 0.00 0.86 0.86 94 1010.4
20260509041337 17 109 19.3 25.7 0.00 0.86 0.86 96 1010.7
20260509040835 17 138 9.7 17.7 0.18 0.86 0.86 96 1010.6
20260509040333 17 171 6.4 24.1 0.18 0.86 0.86 95 1011.1
20260509035829 17 114 12.9 17.7 0.18 0.84 0.84 95 1011.3
20260509035327 17 99 8.0 16.1 0.36 0.81 0.81 96 1011.4
20260509034822 17 193 19.3 29.0 0.53 0.81 0.81 95 1011.6
20260509034321 17 220 9.7 12.9 0.66 0.74 0.74 95 1011.4
20260509033817 17 18 8.0 16.1 2.39 0.69 0.69 93 1010.8
20260509033315 18 322 0.0 4.8 3.48 0.58 0.58 91 1011.8
20260509032811 19 342 0.0 14.5 1.19 0.20 0.20 85 1012.4
20260509032308 21 296 6.4 8.0 0.00 0.00 0.00 76 1011.9
20260509031806 22 75 0.0 9.7 0.00 0.00 0.00 65 1010.8
20260509031303 22 188 4.8 14.5 0.00 0.00 0.00 71 1010.1
20260509030801 22 84 14.5 16.1 0.00 0.00 0.00 72 1009.6
20260509030259 22 91 19.3 38.6 0.00 0.00 0.00 73 1009.9
20260509025755 22 222 0.0 11.3 0.00 0.00 0.00 73 1009.8
20260509025250 22 49 0.0 14.5 0.00 0.00 0.00 74 1009.3
20260509024746 22 96 6.4 6.4 0.00 0.00 0.00 78 1009.3
20260509024242 22 119 0.0 8.0 0.00 0.00 0.00 78 1008.9
20260509023740 22 72 4.8 14.5 0.00 0.00 0.00 78 1008.3
20260509023237 22 70 14.5 14.5 0.00 0.00 0.00 77 1007.6